369  
ASUS46 KEKA 131414  
RWREKA  
EUREKA AREA WEATHER ROUNDUP  
NATIONAL WEATHER SERVICE EUREKA CA  
600 AM PST FRI DEC 13 2019  
 
NOTE: "FAIR" INDICATES FEW OR NO CLOUDS BELOW 12,000 FEET WITH NO  
SIGNIFICANT WEATHER AND/OR S TO VISIBILITY
.  
 
SOUTHWEST OREGON...  
 
CITY SKY/WX TMP DP RH WIND PRES REMARKS
 
MEDFORD LGT RAIN 43 41 93 CALM 30.14F FOG  
KLAMATH FALLS LGT RAIN 37 36 96 CALM 30.10F  
NORTH BEND LGT RAIN 49 49 100 SE6 30.16S  
ROSEBURG LGT RAIN 46 45 96 CALM 30.15F FOG  
SEXTON SUMMIT NOT AVBL  
BROOKINGS RAIN 49 49 100 VRB3 30.12F  
 
NORTHWEST CALIFORNIA...  
 
CITY SKY/WX TMP DP RH WIND PRES REMARKS
 
CRESCENT CITY HVY RAIN 52 52 100 S15G22 30.11F FOG  
MCKINLEYVILLE RAIN 54 50 86 SE10 30.14F  
EUREKA LGT RAIN 52 32 46 S8 30.14F  
FORTUNA CLOUDY 52 50 93 SE10 30.16S  
WEAVERVILLE CLOUDY 45 45 100 CALM 30.18S  
TRINITY CENTER NOT AVBL  
UKIAH LGT RAIN 51 50 96 CALM 30.22S FOG  
 
NORTH & CENTRAL CALIFORNIA...  
 
CITY SKY/WX TMP DP RH WIND PRES REMARKS
 
YREKA LGT RAIN 42 40 92 CALM 30.13F  
MOUNT SHASTA CLOUDY 43 39 86 SE3 30.12  
REDDING LGT RAIN 52 50 93 W6 30.16S  
RED BLUFF CLOUDY 54 50 86 CALM 30.18S  
CHICO CLOUDY 54 54 100 CALM 30.20S  
YUBA CITY LGT RAIN 54 53 97 SE5 30.21S FOG  
SACRAMENTO CLOUDY 54 54 100 SW3 30.23R FOG  
SANTA ROSA CLOUDY 53 53 100 SW3 30.21F  
NAPA CLOUDY 53 53 100 CALM 30.22S FOG  
TRAVIS AFB NOT AVBL  
SAN FRANCISCO MOCLDY 56 53 90 NW3 30.23S  
OAKLAND FOG 56 54 93 CALM 30.24R VSB 3/4  
STOCKTON NOT AVBL  
SALINAS CLOUDY 56 55 97 SE3 30.23R FOG  
MONTEREY FOG 58 55 90 CALM 30.23S VSB 1/4  
 

 
 
 
CLICK HERE TO GO TO PREVIOUS BULLETINS.

The Nexlab CA Page Main Text Page